| time (UTC) | temp F | wind direction | speed knots | gust knots | rain 1hr in | rain 24hr in | rain mn in | humidity % | barometer mb |
| 20260505101009 | 49 | 52 | 1.7 | 3.5 | 0.00 | 0.00 | 0.00 | 59 | 1009.3 |
| 20260505100508 | 50 | 47 | 0.9 | 3.5 | 0.00 | 0.00 | 0.00 | 58 | 1009.1 |
| 20260505100008 | 50 | 39 | 0.0 | 0.9 | 0.00 | 0.00 | 0.00 | 58 | 1009.1 |
| 20260505095714 | 50 | 39 | 0.0 | 0.9 | 0.00 | 0.00 | 0.00 | 57 | 1009.1 |
| 20260505095004 | 50 | 39 | 0.0 | 1.7 | 0.00 | 0.00 | 0.00 | 56 | 1009.1 |
| 20260505094720 | 51 | 39 | 0.0 | 1.7 | 0.00 | 0.00 | 0.00 | 56 | 1009.1 |
| 20260505094003 | 51 | 39 | 0.0 | 0.9 | 0.00 | 0.00 | 0.00 | 56 | 1009.1 |
| 20260505093504 | 51 | 39 | 0.0 | 1.7 | 0.00 | 0.00 | 0.00 | 56 | 1009.1 |
| 20260505093004 | 51 | 39 | 0.9 | 1.7 | 0.00 | 0.00 | 0.00 | 56 | 1009.1 |
| 20260505092503 | 51 | 39 | 0.9 | 1.7 | 0.00 | 0.00 | 0.00 | 55 | 1009.2 |
| 20260505092004 | 51 | 39 | 0.0 | 1.7 | 0.00 | 0.00 | 0.00 | 54 | 1009.0 |
| 20260505091504 | 51 | 39 | 0.0 | 0.9 | 0.00 | 0.00 | 0.00 | 54 | 1008.9 |
| 20260505091008 | 51 | 39 | 0.0 | 0.9 | 0.00 | 0.00 | 0.00 | 54 | 1009.1 |
| 20260505090508 | 52 | 39 | 0.9 | 2.6 | 0.00 | 0.00 | 0.00 | 54 | 1009.0 |
| 20260505090004 | 52 | 39 | 1.7 | 3.5 | 0.00 | 0.00 | 0.00 | 53 | 1008.8 |
| 20260505085715 | 52 | 39 | 1.7 | 3.5 | 0.00 | 0.00 | 0.00 | 53 | 1008.7 |
| 20260505085004 | 52 | 35 | 1.7 | 3.5 | 0.00 | 0.00 | 0.00 | 53 | 1008.4 |
| 20260505084508 | 53 | 32 | 2.6 | 4.3 | 0.00 | 0.00 | 0.00 | 52 | 1008.3 |
| 20260505084004 | 53 | 56 | 2.6 | 4.3 | 0.00 | 0.00 | 0.00 | 51 | 1008.4 |
| 20260505083504 | 53 | 85 | 2.6 | 4.3 | 0.00 | 0.00 | 0.00 | 51 | 1008.6 |
| 20260505083009 | 53 | 91 | 2.6 | 4.3 | 0.00 | 0.00 | 0.00 | 50 | 1008.3 |
| 20260505082503 | 54 | 91 | 1.7 | 4.3 | 0.00 | 0.00 | 0.00 | 49 | 1008.1 |
| 20260505082008 | 54 | 92 | 1.7 | 6.1 | 0.00 | 0.00 | 0.00 | 49 | 1008.0 |
| 20260505081509 | 54 | 96 | 2.6 | 6.1 | 0.00 | 0.00 | 0.00 | 49 | 1007.9 |
| 20260505081217 | 54 | 97 | 3.5 | 6.1 | 0.00 | 0.00 | 0.00 | 49 | 1007.8 |
| 20260505080508 | 55 | 100 | 2.6 | 7.0 | 0.00 | 0.00 | 0.00 | 48 | 1007.8 |
| 20260505080003 | 55 | 107 | 2.6 | 7.8 | 0.00 | 0.00 | 0.00 | 48 | 1007.9 |
| 20260505075716 | 55 | 111 | 2.6 | 7.8 | 0.00 | 0.00 | 0.00 | 47 | 1007.8 |
| 20260505075004 | 55 | 103 | 4.3 | 12.2 | 0.00 | 0.00 | 0.00 | 47 | 1007.8 |
| 20260505074508 | 56 | 102 | 5.2 | 12.2 | 0.00 | 0.00 | 0.00 | 46 | 1007.8 |
| 20260505074009 | 56 | 103 | 6.1 | 12.2 | 0.00 | 0.00 | 0.00 | 46 | 1007.4 |
| 20260505073503 | 56 | 99 | 7.0 | 12.2 | 0.00 | 0.00 | 0.00 | 46 | 1007.3 |
| 20260505073003 | 56 | 92 | 7.8 | 15.6 | 0.00 | 0.00 | 0.00 | 46 | 1007.3 |
| 20260505072509 | 56 | 93 | 8.7 | 15.6 | 0.00 | 0.00 | 0.00 | 45 | 1007.4 |
| 20260505072003 | 56 | 95 | 8.7 | 15.6 | 0.00 | 0.00 | 0.00 | 45 | 1007.3 |
| 20260505071508 | 56 | 90 | 8.7 | 15.6 | 0.00 | 0.00 | 0.00 | 45 | 1007.2 |
| 20260505071222 | 57 | 91 | 9.6 | 16.5 | 0.00 | 0.00 | 0.00 | 45 | 1007.2 |
| 20260505070508 | 57 | 94 | 10.4 | 16.5 | 0.00 | 0.00 | 0.00 | 44 | 1007.2 |
| 20260505070008 | 57 | 92 | 10.4 | 16.5 | 0.00 | 0.00 | 0.00 | 44 | 1007.2 |
| 20260505065504 | 57 | 91 | 10.4 | 15.6 | 0.00 | 0.00 | 0.00 | 44 | 1007.1 |
| 20260505065014 | 57 | 91 | 9.6 | 15.6 | 0.00 | 0.00 | 0.00 | 44 | 1007.1 |
| 20260505064504 | 58 | 87 | 8.7 | 15.6 | 0.00 | 0.00 | 0.00 | 44 | 1007.3 |
| 20260505064220 | 58 | 85 | 8.7 | 15.6 | 0.00 | 0.00 | 0.00 | 44 | 1007.3 |
| 20260505063503 | 58 | 81 | 9.6 | 15.6 | 0.00 | 0.00 | 0.00 | 43 | 1007.3 |
| 20260505063009 | 58 | 79 | 9.6 | 15.6 | 0.00 | 0.00 | 0.00 | 43 | 1007.2 |
| 20260505062719 | 58 | 77 | 10.4 | 17.4 | 0.00 | 0.00 | 0.00 | 43 | 1007.1 |
| 20260505062003 | 59 | 73 | 13.0 | 20.9 | 0.00 | 0.00 | 0.00 | 42 | 1006.9 |
| 20260505061504 | 59 | 67 | 14.8 | 21.7 | 0.00 | 0.00 | 0.00 | 42 | 1007.0 |
| 20260505061004 | 59 | 61 | 15.6 | 22.6 | 0.00 | 0.00 | 0.00 | 41 | 1007.0 |
| 20260505060508 | 60 | 58 | 13.0 | 22.6 | 0.00 | 0.00 | 0.00 | 42 | 1006.9 |
| 20260505060004 | 60 | 56 | 12.2 | 18.2 | 0.00 | 0.00 | 0.00 | 42 | 1006.8 |
| 20260505055509 | 60 | 55 | 13.9 | 20.0 | 0.00 | 0.00 | 0.00 | 42 | 1006.8 |
| 20260505055009 | 60 | 54 | 14.8 | 20.9 | 0.00 | 0.00 | 0.00 | 41 | 1006.7 |
| 20260505054718 | 60 | 53 | 14.8 | 20.9 | 0.00 | 0.00 | 0.00 | 41 | 1006.6 |
| 20260505054004 | 61 | 49 | 15.6 | 24.3 | 0.00 | 0.00 | 0.00 | 41 | 1006.5 |
| 20260505053714 | 61 | 49 | 16.5 | 24.3 | 0.00 | 0.00 | 0.00 | 41 | 1006.5 |
| 20260505053008 | 61 | 48 | 15.6 | 24.3 | 0.00 | 0.00 | 0.00 | 40 | 1006.6 |
| 20260505052515 | 62 | 48 | 16.5 | 23.5 | 0.00 | 0.00 | 0.00 | 40 | 1006.5 |
| 20260505052004 | 62 | 47 | 16.5 | 24.3 | 0.00 | 0.00 | 0.00 | 39 | 1006.3 |
| 20260505051509 | 62 | 49 | 16.5 | 24.3 | 0.00 | 0.00 | 0.00 | 38 | 1006.2 |
| 20260505051008 | 63 | 51 | 16.5 | 23.5 | 0.00 | 0.00 | 0.00 | 38 | 1005.9 |
| 20260505050503 | 63 | 49 | 15.6 | 23.5 | 0.00 | 0.00 | 0.00 | 38 | 1005.8 |
| 20260505041504 | 65 | 20 | 12.2 | 18.2 | 0.00 | 0.00 | 0.00 | 35 | 1005.4 |
| 20260505041003 | 65 | 15 | 11.3 | 19.1 | 0.00 | 0.00 | 0.00 | 36 | 1005.5 |
| 20260505040504 | 65 | 6 | 11.3 | 19.1 | 0.00 | 0.00 | 0.00 | 36 | 1005.3 |
| 20260505040005 | 65 | 2 | 11.3 | 19.1 | 0.00 | 0.00 | 0.00 | 36 | 1005.3 |
| 20260505035508 | 66 | 2 | 13.9 | 23.5 | 0.00 | 0.00 | 0.00 | 35 | 1005.1 |
| 20260505035008 | 66 | 356 | 13.0 | 23.5 | 0.00 | 0.00 | 0.00 | 34 | 1005.2 |
| 20260505034508 | 66 | 348 | 12.2 | 21.7 | 0.00 | 0.00 | 0.00 | 34 | 1005.3 |
| 20260505034004 | 67 | 354 | 14.8 | 22.6 | 0.00 | 0.00 | 0.00 | 34 | 1005.2 |
| 20260505033503 | 67 | 3 | 14.8 | 25.2 | 0.00 | 0.00 | 0.00 | 33 | 1004.9 |
| 20260505033213 | 67 | 5 | 13.0 | 25.2 | 0.00 | 0.00 | 0.00 | 33 | 1004.9 |
| 20260505032504 | 68 | 7 | 9.6 | 20.9 | 0.00 | 0.00 | 0.00 | 30 | 1004.7 |
| 20260505032003 | 68 | 12 | 12.2 | 21.7 | 0.00 | 0.00 | 0.00 | 29 | 1004.7 |
| 20260505031508 | 68 | 5 | 13.0 | 21.7 | 0.00 | 0.00 | 0.00 | 29 | 1004.2 |
| 20260505031004 | 68 | 351 | 11.3 | 16.5 | 0.00 | 0.00 | 0.00 | 29 | 1004.1 |
| 20260505030713 | 68 | 345 | 11.3 | 16.5 | 0.00 | 0.00 | 0.00 | 29 | 1004.0 |
| 20260505030008 | 68 | 331 | 7.0 | 16.5 | 0.00 | 0.00 | 0.00 | 29 | 1003.7 |
| 20260505025504 | 68 | 335 | 6.1 | 11.3 | 0.00 | 0.00 | 0.00 | 28 | 1003.5 |
| 20260505025004 | 69 | 346 | 7.0 | 11.3 | 0.00 | 0.00 | 0.00 | 26 | 1003.2 |
| 20260505024504 | 69 | 351 | 6.1 | 10.4 | 0.00 | 0.00 | 0.00 | 26 | 1003.0 |
| 20260505024009 | 69 | 349 | 5.2 | 9.6 | 0.00 | 0.00 | 0.00 | 26 | 1002.6 |
| 20260505023504 | 69 | 353 | 6.1 | 10.4 | 0.00 | 0.00 | 0.00 | 25 | 1002.5 |
| 20260505023003 | 69 | 10 | 7.0 | 10.4 | 0.00 | 0.00 | 0.00 | 25 | 1002.6 |
| 20260505022504 | 70 | 19 | 7.0 | 10.4 | 0.00 | 0.00 | 0.00 | 24 | 1002.2 |
| 20260505022008 | 70 | 21 | 6.1 | 10.4 | 0.00 | 0.00 | 0.00 | 24 | 1002.2 |
| 20260505021503 | 70 | 26 | 6.1 | 9.6 | 0.00 | 0.00 | 0.00 | 23 | 1002.2 |
| 20260505021003 | 70 | 37 | 6.1 | 9.6 | 0.00 | 0.00 | 0.00 | 23 | 1002.1 |
| 20260505020509 | 71 | 46 | 7.0 | 9.6 | 0.00 | 0.00 | 0.00 | 23 | 1002.0 |
| 20260505020009 | 71 | 51 | 7.0 | 10.4 | 0.00 | 0.00 | 0.00 | 23 | 1001.8 |
| 20260505015714 | 71 | 51 | 7.8 | 11.3 | 0.00 | 0.00 | 0.00 | 23 | 1001.8 |
| 20260505015004 | 71 | 44 | 8.7 | 13.0 | 0.00 | 0.00 | 0.00 | 22 | 1001.6 |
| 20260505014509 | 72 | 36 | 9.6 | 13.0 | 0.00 | 0.00 | 0.00 | 22 | 1001.7 |
| 20260505014008 | 72 | 30 | 9.6 | 13.0 | 0.00 | 0.00 | 0.00 | 22 | 1001.5 |
| 20260505013503 | 72 | 28 | 9.6 | 14.8 | 0.00 | 0.00 | 0.00 | 22 | 1001.4 |
| 20260505013004 | 72 | 24 | 10.4 | 15.6 | 0.00 | 0.00 | 0.00 | 21 | 1001.4 |
| 20260505012718 | 72 | 24 | 10.4 | 17.4 | 0.00 | 0.00 | 0.00 | 21 | 1001.5 |
| 20260505012005 | 73 | 20 | 11.3 | 17.4 | 0.00 | 0.00 | 0.00 | 21 | 1001.4 |
| 20260505011509 | 73 | 17 | 10.4 | 15.6 | 0.00 | 0.00 | 0.00 | 20 | 1001.5 |
| 20260505011003 | 74 | 14 | 9.6 | 15.6 | 0.00 | 0.00 | 0.00 | 20 | 1001.4 |
| 20260505010503 | 74 | 358 | 9.6 | 17.4 | 0.00 | 0.00 | 0.00 | 20 | 1001.3 |
| 20260505010003 | 74 | 334 | 7.0 | 17.4 | 0.00 | 0.00 | 0.00 | 19 | 1001.3 |
| 20260505005504 | 74 | 307 | 5.2 | 8.7 | 0.00 | 0.00 | 0.00 | 24 | 1001.3 |
| 20260505005005 | 74 | 308 | 4.3 | 8.7 | 0.00 | 0.00 | 0.00 | 23 | 1001.2 |
| 20260505004716 | 74 | 308 | 4.3 | 8.7 | 0.00 | 0.00 | 0.00 | 24 | 1001.3 |
| 20260505004214 | 74 | 310 | 2.6 | 5.2 | 0.00 | 0.00 | 0.00 | 26 | 1001.3 |
| 20260505003717 | 75 | 312 | 2.6 | 5.2 | 0.00 | 0.00 | 0.00 | 25 | 1001.0 |
| 20260505003220 | 75 | 312 | 3.5 | 5.2 | 0.00 | 0.00 | 0.00 | 23 | 1001.0 |
| 20260505002504 | 76 | 309 | 3.5 | 5.2 | 0.00 | 0.00 | 0.00 | 22 | 1001.2 |
| 20260505002216 | 76 | 309 | 3.5 | 5.2 | 0.00 | 0.00 | 0.00 | 22 | 1001.2 |
| 20260505001503 | 76 | 307 | 3.5 | 6.1 | 0.00 | 0.00 | 0.00 | 22 | 1001.1 |
| 20260505001003 | 77 | 306 | 3.5 | 6.1 | 0.00 | 0.00 | 0.00 | 21 | 1001.2 |
| 20260505000504 | 77 | 306 | 4.3 | 7.8 | 0.00 | 0.00 | 0.00 | 21 | 1001.4 |
| 20260505000003 | 77 | 307 | 5.2 | 8.7 | 0.00 | 0.00 | 0.00 | 20 | 1001.5 |
| 20260504235721 | 77 | 308 | 5.2 | 8.7 | 0.00 | 0.00 | 0.00 | 20 | 1001.5 |
| 20260504235004 | 77 | 303 | 7.0 | 10.4 | 0.00 | 0.00 | 0.00 | 21 | 1001.6 |
| 20260504234503 | 77 | 304 | 7.0 | 10.4 | 0.00 | 0.00 | 0.00 | 20 | 1001.6 |
| 20260504234004 | 78 | 302 | 5.2 | 11.3 | 0.00 | 0.00 | 0.00 | 20 | 1001.4 |
| 20260504233503 | 78 | 304 | 6.1 | 11.3 | 0.00 | 0.00 | 0.00 | 19 | 1001.4 |
| 20260504233004 | 78 | 309 | 6.1 | 11.3 | 0.00 | 0.00 | 0.00 | 20 | 1001.5 |
| 20260504232503 | 79 | 307 | 6.1 | 11.3 | 0.00 | 0.00 | 0.00 | 19 | 1001.3 |
| 20260504232003 | 79 | 300 | 6.1 | 9.6 | 0.00 | 0.00 | 0.00 | 19 | 1001.4 |
| 20260504231503 | 79 | 299 | 7.0 | 10.4 | 0.00 | 0.00 | 0.00 | 18 | 1001.4 |
| 20260504231217 | 79 | 300 | 7.8 | 12.2 | 0.00 | 0.00 | 0.00 | 19 | 1001.4 |
| 20260504230715 | 79 | 300 | 7.0 | 12.2 | 0.00 | 0.00 | 0.00 | 19 | 1001.4 |
| 20260504230003 | 79 | 304 | 6.1 | 12.2 | 0.00 | 0.00 | 0.00 | 17 | 1001.3 |
| 20260504225503 | 79 | 297 | 7.8 | 15.6 | 0.00 | 0.00 | 0.00 | 17 | 1001.3 |
| 20260504225214 | 80 | 288 | 8.7 | 15.6 | 0.00 | 0.00 | 0.00 | 16 | 1001.1 |
| 20260504224717 | 80 | 277 | 8.7 | 14.8 | 0.00 | 0.00 | 0.00 | 15 | 1001.1 |
| 20260504224004 | 80 | 273 | 6.1 | 13.9 | 0.00 | 0.00 | 0.00 | 15 | 1001.0 |
| 20260504223504 | 80 | 289 | 4.3 | 8.7 | 0.00 | 0.00 | 0.00 | 15 | 1001.1 |
| 20260504223216 | 80 | 290 | 6.1 | 19.1 | 0.00 | 0.00 | 0.00 | 15 | 1001.1 |
| 20260504222504 | 81 | 284 | 6.1 | 19.1 | 0.00 | 0.00 | 0.00 | 15 | 1001.3 |
| 20260504222004 | 81 | 291 | 4.3 | 7.8 | 0.00 | 0.00 | 0.00 | 14 | 1001.3 |
| 20260504221503 | 80 | 294 | 3.5 | 7.0 | 0.00 | 0.00 | 0.00 | 15 | 1001.2 |
| 20260504221218 | 80 | 293 | 3.5 | 7.0 | 0.00 | 0.00 | 0.00 | 15 | 1001.3 |
| 20260504220503 | 80 | 296 | 6.1 | 11.3 | 0.00 | 0.00 | 0.00 | 14 | 1001.4 |
| 20260504220214 | 81 | 301 | 6.1 | 11.3 | 0.00 | 0.00 | 0.00 | 15 | 1001.4 |
| 20260504215504 | 80 | 300 | 5.2 | 9.6 | 0.00 | 0.00 | 0.00 | 15 | 1001.4 |
| 20260504215003 | 80 | 287 | 6.1 | 9.6 | 0.00 | 0.00 | 0.00 | 14 | 1001.4 |
| 20260504214503 | 81 | 293 | 7.0 | 10.4 | 0.00 | 0.00 | 0.00 | 14 | 1001.4 |
| 20260504214004 | 81 | 305 | 7.0 | 10.4 | 0.00 | 0.00 | 0.00 | 14 | 1001.5 |
| 20260504213503 | 81 | 302 | 7.8 | 12.2 | 0.00 | 0.00 | 0.00 | 14 | 1001.7 |
| 20260504213003 | 81 | 294 | 8.7 | 13.9 | 0.00 | 0.00 | 0.00 | 15 | 1001.8 |
| 20260504212504 | 81 | 287 | 8.7 | 13.9 | 0.00 | 0.00 | 0.00 | 14 | 1001.8 |
| 20260504212004 | 81 | 268 | 8.7 | 13.0 | 0.00 | 0.00 | 0.00 | 14 | 1001.9 |
| 20260504211716 | 81 | 261 | 8.7 | 16.5 | 0.00 | 0.00 | 0.00 | 14 | 1001.9 |
| 20260504211003 | 81 | 280 | 8.7 | 16.5 | 0.00 | 0.00 | 0.00 | 14 | 1002.1 |
| 20260504210504 | 82 | 279 | 9.6 | 25.2 | 0.00 | 0.00 | 0.00 | 14 | 1002.1 |
| 20260504210004 | 82 | 273 | 11.3 | 25.2 | 0.00 | 0.00 | 0.00 | 14 | 1002.1 |
| 20260504205504 | 82 | 275 | 9.6 | 14.8 | 0.00 | 0.00 | 0.00 | 13 | 1002.1 |
| 20260504205004 | 82 | 271 | 8.7 | 14.8 | 0.00 | 0.00 | 0.00 | 13 | 1002.2 |
| 20260504204713 | 81 | 268 | 8.7 | 14.8 | 0.00 | 0.00 | 0.00 | 14 | 1002.4 |
| 20260504204004 | 82 | 260 | 12.2 | 17.4 | 0.00 | 0.00 | 0.00 | 13 | 1002.6 |
| 20260504203503 | 82 | 257 | 11.3 | 17.4 | 0.00 | 0.00 | 0.00 | 13 | 1002.7 |
| 20260504203217 | 82 | 262 | 11.3 | 17.4 | 0.00 | 0.00 | 0.00 | 13 | 1002.7 |
| 20260504202503 | 82 | 282 | 9.6 | 15.6 | 0.00 | 0.00 | 0.00 | 13 | 1002.9 |
| 20260504202004 | 82 | 292 | 7.8 | 16.5 | 0.00 | 0.00 | 0.00 | 13 | 1003.0 |
| 20260504201504 | 82 | 293 | 4.3 | 16.5 | 0.00 | 0.00 | 0.00 | 12 | 1003.0 |
| 20260504201004 | 82 | 302 | 2.6 | 7.0 | 0.00 | 0.00 | 0.00 | 15 | 1003.1 |
| 20260504200503 | 81 | 309 | 4.3 | 9.6 | 0.00 | 0.00 | 0.00 | 14 | 1003.1 |
| 20260504200003 | 80 | 304 | 4.3 | 9.6 | 0.00 | 0.00 | 0.00 | 15 | 1003.2 |
| 20260504195504 | 80 | 243 | 2.6 | 7.0 | 0.00 | 0.00 | 0.00 | 17 | 1003.2 |
| 20260504195004 | 80 | 114 | 3.5 | 7.8 | 0.00 | 0.00 | 0.00 | 16 | 1003.1 |
| 20260504194714 | 80 | 98 | 3.5 | 7.8 | 0.00 | 0.00 | 0.00 | 16 | 1003.1 |
| 20260504194009 | 80 | 74 | 2.6 | 7.8 | 0.00 | 0.00 | 0.00 | 18 | 1003.1 |
| 20260504193509 | 80 | 68 | 1.7 | 5.2 | 0.00 | 0.00 | 0.00 | 17 | 1003.2 |
| 20260504193213 | 80 | 48 | 2.6 | 7.0 | 0.00 | 0.00 | 0.00 | 17 | 1003.3 |
| 20260504192504 | 79 | 19 | 5.2 | 11.3 | 0.00 | 0.00 | 0.00 | 16 | 1003.3 |
| 20260504192214 | 79 | 11 | 7.0 | 13.0 | 0.00 | 0.00 | 0.00 | 16 | 1003.4 |
| 20260504191503 | 79 | 21 | 7.0 | 13.0 | 0.00 | 0.00 | 0.00 | 16 | 1003.5 |
| 20260504191215 | 80 | 28 | 5.2 | 12.2 | 0.00 | 0.00 | 0.00 | 16 | 1003.5 |
| 20260504190504 | 81 | 20 | 2.6 | 7.0 | 0.00 | 0.00 | 0.00 | 17 | 1003.6 |
| 20260504190004 | 80 | 311 | 3.5 | 7.8 | 0.00 | 0.00 | 0.00 | 17 | 1003.7 |
| 20260504185503 | 80 | 288 | 4.3 | 7.8 | 0.00 | 0.00 | 0.00 | 17 | 1003.7 |
| 20260504185004 | 80 | 280 | 4.3 | 7.8 | 0.00 | 0.00 | 0.00 | 17 | 1003.9 |
| 20260504184715 | 80 | 275 | 3.5 | 7.8 | 0.00 | 0.00 | 0.00 | 17 | 1003.8 |
| 20260504184004 | 79 | 301 | 4.3 | 12.2 | 0.00 | 0.00 | 0.00 | 17 | 1003.9 |
| 20260504183503 | 79 | 293 | 4.3 | 7.8 | 0.00 | 0.00 | 0.00 | 18 | 1003.9 |
| 20260504183003 | 79 | 262 | 3.5 | 7.0 | 0.00 | 0.00 | 0.00 | 18 | 1003.9 |
| 20260504182504 | 79 | 259 | 2.6 | 7.0 | 0.00 | 0.00 | 0.00 | 18 | 1003.8 |
| 20260504182004 | 79 | 277 | 4.3 | 10.4 | 0.00 | 0.00 | 0.00 | 18 | 1004.0 |
| 20260504181503 | 79 | 293 | 4.3 | 10.4 | 0.00 | 0.00 | 0.00 | 17 | 1004.2 |
| 20260504181003 | 79 | 300 | 3.5 | 7.0 | 0.00 | 0.00 | 0.00 | 18 | 1004.2 |
| 20260504180713 | 79 | 296 | 4.3 | 9.6 | 0.00 | 0.00 | 0.00 | 18 | 1004.2 |
| 20260504180217 | 79 | 297 | 5.2 | 11.3 | 0.00 | 0.00 | 0.00 | 18 | 1004.3 |
| 20260504175715 | 79 | 305 | 6.1 | 12.2 | 0.00 | 0.00 | 0.00 | 18 | 1004.4 |
| 20260504175003 | 78 | 305 | 7.0 | 12.2 | 0.00 | 0.00 | 0.00 | 20 | 1004.5 |
| 20260504174504 | 78 | 283 | 7.0 | 10.4 | 0.00 | 0.00 | 0.00 | 20 | 1004.7 |
| 20260504174004 | 78 | 263 | 7.0 | 10.4 | 0.00 | 0.00 | 0.00 | 20 | 1004.7 |
| 20260504173503 | 78 | 269 | 9.6 | 14.8 | 0.00 | 0.00 | 0.00 | 20 | 1004.8 |
| 20260504173003 | 78 | 272 | 8.7 | 14.8 | 0.00 | 0.00 | 0.00 | 20 | 1005.2 |
| 20260504172504 | 78 | 273 | 7.8 | 13.9 | 0.00 | 0.00 | 0.00 | 21 | 1005.3 |
| 20260504172004 | 78 | 276 | 8.7 | 13.9 | 0.00 | 0.00 | 0.00 | 21 | 1005.3 |
| 20260504171503 | 78 | 288 | 8.7 | 14.8 | 0.00 | 0.00 | 0.00 | 21 | 1005.3 |
| 20260504171004 | 77 | 298 | 10.4 | 16.5 | 0.00 | 0.00 | 0.00 | 23 | 1005.5 |
| 20260504170503 | 77 | 295 | 10.4 | 16.5 | 0.00 | 0.00 | 0.00 | 22 | 1005.5 |
| 20260504160214 | 72 | 293 | 7.8 | 12.2 | 0.00 | 0.00 | 0.00 | 28 | 1006.3 |
| 20260504150503 | 70 | 285 | 6.1 | 13.9 | 0.00 | 0.00 | 0.00 | 27 | 1007.0 |
| 20260504141004 | 63 | 276 | 6.1 | 9.6 | 0.00 | 0.00 | 0.00 | 35 | 1006.9 |
| 20260504140504 | 62 | 260 | 6.1 | 8.7 | 0.00 | 0.00 | 0.00 | 37 | 1006.8 |
| 20260504130722 | 53 | 248 | 0.9 | 2.6 | 0.00 | 0.00 | 0.00 | 52 | 1007.2 |
| 20260504110503 | 43 | 239 | 4.3 | 12.2 | 0.00 | 0.00 | 0.00 | 69 | 1006.8 |